Weather History for Pascagoula, MS

Change the Weather History Date:

Tuesday, March 19, 2013

  Actual Average Record
Temperature  
Mean Temperature 66 °F -  
Max Temperature 79 °F 71 °F 83 °F (1982)
Min Temperature 55 °F 54 °F 34 °F (1949)
Cooling Degree Days 2    
Growing Degree Days 16 (Base 50)    
Moisture  
Dew Point 55 °F    
Average Humidity 75    
Maximum Humidity 96    
Minimum Humidity 36    
Precipitation  
Precipitation 0.00 in - - ()
Sea Level Pressure  
Sea Level Pressure 29.97 in    
Wind  
Wind Speed 8 mph (NNE)    
Max Wind Speed 15 mph    
Max Gust Speed 24 mph    
Visibility 9 miles    
Events Rain    
Averages and records for this station are not official NWS values.
T = Trace of Precipitation, MM = Missing Value Source: NWS Daily Summary

Daily Weather History Graph

Daily Weather History Graph

Search for Another Location

Airport:

Trip Planner

Search our weather history database for the weather conditions in past years. The results will help you decide how hot, cold, wet, or windy it might be!

Date:

Astronomy

Mar. 19, 2013 Rise Set
Actual Time 6:58 AM CDT 7:05 PM CDT
Civil Twilight 6:34 AM CDT 7:29 PM CDT
Nautical Twilight 6:06 AM CDT 7:57 PM CDT
Astronomical Twilight 5:38 AM CDT 8:25 PM CDT
Moon 12:11 PM CDT (3/19) 1:29 AM CDT (3/19)
Length of Visible Light 12h 54m
Length of Day
12h 06m
Waxing Crescent, 50% of the Moon is Illuminated
Mar 19
Waxing Crescent
Mar 19
First Quarter
Mar 27
Full
Apr 2
Last Quarter
Apr 10
New

Hourly Weather History & Observations

Time (CDT) Temp. Dew Point Humidity Pressure Visibility Wind Dir Wind Speed Gust Speed Precip Events Conditions
12:24 AM 66.2 °F 64.4 °F 94% 29.88 in 1.0 mi NNE 6.9 mph - N/A   Overcast
12:35 AM 66.2 °F 64.4 °F 94% 29.89 in 4.0 mi Variable 3.5 mph - N/A   Overcast
12:53 AM 64.9 °F 63.0 °F 93% 29.90 in 6.0 mi North 3.5 mph - 0.00 in Rain Light Rain
1:02 AM 64.4 °F 62.6 °F 94% 29.88 in 9.0 mi SE 5.8 mph - 0.00 in   Mostly Cloudy
1:13 AM 64.4 °F 62.6 °F 94% 29.90 in 6.0 mi North 8.1 mph - 0.00 in   Mostly Cloudy
1:20 AM 64.4 °F 62.6 °F 94% 29.91 in 7.0 mi North 9.2 mph - 0.00 in   Mostly Cloudy
1:31 AM 62.6 °F 60.8 °F 94% 29.92 in 10.0 mi North 13.8 mph 20.7 mph 0.00 in   Mostly Cloudy
1:46 AM 62.6 °F 60.8 °F 94% 29.93 in 10.0 mi North 9.2 mph - 0.00 in   Overcast
1:53 AM 63.0 °F 59.0 °F 87% 29.93 in 10.0 mi NNE 5.8 mph - 0.00 in   Overcast
2:53 AM 62.1 °F 57.0 °F 84% 29.93 in 10.0 mi North 6.9 mph - N/A   Overcast
3:20 AM 62.6 °F 57.2 °F 82% 29.93 in 10.0 mi North 11.5 mph - N/A   Overcast
3:53 AM 62.1 °F 55.9 °F 80% 29.94 in 10.0 mi North 12.7 mph - N/A   Overcast
4:53 AM 61.0 °F 55.0 °F 81% 29.97 in 10.0 mi North 15.0 mph 21.9 mph N/A   Overcast
5:17 AM 60.8 °F 55.4 °F 82% 29.96 in 10.0 mi NNE 15.0 mph 24.2 mph N/A   Overcast
5:27 AM 60.8 °F 53.6 °F 77% 29.97 in 10.0 mi NNE 11.5 mph - N/A   Overcast
5:53 AM 59.0 °F 53.1 °F 81% 29.98 in 10.0 mi NNE 13.8 mph 23.0 mph N/A   Partly Cloudy
6:53 AM 57.9 °F 53.1 °F 84% 30.00 in 10.0 mi North 10.4 mph - N/A   Mostly Cloudy
7:12 AM 57.2 °F 53.6 °F 88% 30.01 in 10.0 mi North 9.2 mph - N/A   Scattered Clouds
7:53 AM 57.0 °F 51.1 °F 81% 30.03 in 10.0 mi NNE 11.5 mph - N/A   Scattered Clouds
8:53 AM 59.0 °F 48.9 °F 69% 30.04 in 10.0 mi NNE 13.8 mph - N/A   Partly Cloudy
9:53 AM 63.0 °F 48.9 °F 60% 30.04 in 10.0 mi ENE 9.2 mph - N/A   Clear
10:53 AM 66.9 °F 48.9 °F 52% 30.04 in 10.0 mi NNE 8.1 mph - N/A   Clear
11:53 AM 71.1 °F 44.1 °F 38% 30.04 in 10.0 mi ENE 6.9 mph - N/A   Clear
12:53 PM 75.0 °F 46.0 °F 36% 30.02 in 10.0 mi Variable 5.8 mph - N/A   Clear
1:53 PM 75.9 °F 46.9 °F 36% 30.00 in 10.0 mi East 8.1 mph - N/A   Clear
2:53 PM 78.1 °F 50.0 °F 37% 29.99 in 10.0 mi East 5.8 mph - N/A   Mostly Cloudy
3:53 PM 78.1 °F 48.9 °F 36% 29.96 in 10.0 mi North 4.6 mph - N/A   Clear
4:53 PM 78.1 °F 48.9 °F 36% 29.95 in 10.0 mi Variable 3.5 mph - N/A   Clear
5:53 PM 73.0 °F 55.9 °F 55% 29.95 in 10.0 mi SSE 9.2 mph - N/A   Clear
6:53 PM 66.9 °F 55.9 °F 68% 29.97 in 10.0 mi South 3.5 mph - N/A   Clear
7:53 PM 62.1 °F 57.0 °F 84% 29.99 in 10.0 mi Calm Calm - N/A   Clear
8:53 PM 59.0 °F 55.9 °F 90% 30.00 in 10.0 mi Calm Calm - N/A   Clear
9:53 PM 55.9 °F 54.0 °F 93% 30.02 in 7.0 mi Calm Calm - N/A   Clear
10:53 PM 55.0 °F 54.0 °F 96% 30.03 in 9.0 mi Calm Calm - N/A   Partly Cloudy
11:53 PM 55.9 °F 46.9 °F 72% 30.02 in 10.0 mi NNE 4.6 mph - N/A   Clear